カタログに戻る

FENGYUN 1C DEB

運用中SSO
NORAD 30936·DEBRIS·🇨🇳 China

打ち上げ May 10, 1999 から Taiyuan Satellite Launch Center

Loading…

次のパス (今後24時間)

TLE

最新Source: Space-Track

元期: Sep 14, 2026, 13:29 UTC

1 30936U 99025BAA 26257.56246544  .00000570  00000-0  26441-3 0  9996
2 30936  98.5563 286.2344 0046134 206.3077 307.4830 14.23896688 10574

AllMySatでFENGYUN 1C DEBをリアルタイム追跡

Download on the App Store